Location: Consuma
(43.7833°N, 11.5833°E)
Time: 04:46:03
(UTC+00:00)

NOSS 3-1 (A) - Pass Details

Date: 17 February 2020
Orbit: 761 x 1452 km, 63.4° (Epoch: 26 March)

Event Time Altitude Azimuth Distance (km) Brightness Sun altitude
Exits shadow 03:39:14 32° 323° (NW) 2,002 4.8 -27.9°
Maximum altitude 03:43:24 88° 237° (WSW) 1,320 4.0 -27.2°
Drops below altitude 10° 03:52:07 10° 147° (SSE) 3,510 6.7 -25.6°
Sets 03:55:09 0° 147° (SSE) 4,518 7.3 -25.1°
